Notices

What's New in latest Release from April 7th, 2021:

- Updated Glossary, including Speed of Maximum Gust, and Total Hourly Precipitation

- Updated national and regional climate services offices contacts and prices information

- Addition of station inventory lists for 1981-2010, 1971-2000, and 1961-1990 Normals.

If you haven't already, please take our survey and provide feedback about our website: https://eccc.sondage-survey.ca/f/LanguageSelection.aspx?s=442ca660-fcf1-47c0-95a9-59707d6fd709

Hourly Data Report for April 22, 2019

MIRAMICHI RCS
NEW BRUNSWICK
Current Station Operator: ECCC - MSC

47°00'34.000" N
65°27'54.000" W
33.00 m
8100989
71744
ACQ

Download Data

Hourly Data (April 2019)
Hourly Data Report for April 22, 2019
TIME
LST
Temp Definition
°C
Dew Point Definition
°C
Rel Hum Definition
%
Precip. Amount Definition
mm

Wind Dir Definition
10's deg

Wind Spd Definition
km/h
Visibility Definition
km
Stn Press Definition
kPa
Hmdx Definition


Wind Chill Definition


Weather Definition


00:00 11.6 11.2 97 0.0 22 8   101.45     LegendNANA
01:00 11.4 11.0 98 0.0 22 11   101.46     LegendNANA
02:00 11.2 10.9 98 0.0 24 13   101.48     LegendNANA
03:00 10.6 10.3 98 0.0 22 8   101.54     LegendNANA
04:00 10.6 10.3 99 0.0 27 10   101.59     LegendNANA
05:00 9.9 9.7 99 0.0 26 7   101.65     LegendNANA
06:00 9.4 9.2 99 0.0 27 6   101.73     LegendNANA
07:00 9.8 9.3 97 0.0 31 4   101.81     LegendNANA
08:00 9.9 7.1 83 0.0 34 8   101.79     LegendNANA
09:00 11.3 6.4 72 0.0 35 7   101.86     LegendNANA
10:00 12.4 5.7 64 0.0 1 10   101.89     LegendNANA
11:00 13.6 4.8 55 0.0 2 10   101.90     LegendNANA
12:00 14.1 3.8 50 0.0 5 4   101.92     LegendNANA
13:00 14.1 0.6 40 0.0 5 8   101.91     LegendNANA
14:00 15.0 1.3 39 0.0 8 9   101.87     LegendNANA
15:00 15.0 2.0 42 0.0 7 10   101.85     LegendNANA
16:00 14.1 5.0 54 0.0 9 15   101.88     LegendNANA
17:00 12.5 5.4 62 0.0 10 19   101.87     LegendNANA
18:00 7.9 3.1 71 0.0 5 10   101.95     LegendNANA
19:00 5.2 1.2 75 0.0 5 13   102.01     LegendNANA
20:00 3.4 0.2 80 0.0 5 13   102.06     LegendNANA
21:00 3.0 0.0 81 0.0 6 10   102.13     LegendNANA
22:00 2.2 -0.5 82 0.0 6 7   102.15     LegendNANA
23:00 1.3 -0.6 87 0.0 2 7   102.11     LegendNANA

Notes on Data Quality.

Legend

  • E = Estimated
  • M = Missing
  • NA = Not Available*
  • [empty] = Indicates an unobserved value
Date modified: